User: anonymous   Login
Location: Cabeza de los Veneras
(40.2000°N, 5.2000°W)
Time: 18:38:42
(UTC+00:00)
Language:

Cosmos 1727 Rocket - Orbit

View from above orbital plane
View from above orbital plane
View from above satellite
View from above satellite

Ground track
Ground track

The orbit data is extracted from the following two-line orbital elements,

1 16511U 86008B   24165.90714117  .00000065  00000-0  51795-4 0  9996
2 16511  82.9429 125.9874 0024033 352.2936  60.8761 13.75888352927161
Epoch (UTC): 13 June 2024 21:46:16
Eccentricity: 0.0024033
inclination: 82.9429°
perigee height: 961 km
apogee height: 996 km
right ascension of ascending node: 125.9874°
argument of perigee: 352.2936°
revolutions per day: 13.75888352
mean anomaly at epoch: 60.8761°
orbit number at epoch: 92716

The dashed part of the orbit path shows where the satellite is in the earth's shadow,  

DLR